Regional Weather Roundup
Issued by NWS Pendleton, OR

Home | Current Version | Previous Version | Text Only | Print | Product List | Glossary On
Versions: 1 2 3 4 5 6 7 8 9 10 11 12 13 14 15 16 17 18 19 20 21 22 23 24 25 26 27 28 29 30 31 32 33 34 35 36 37 38 39 40 41 42 43 44 45 46 47 48 49 50
000
ASUS46 KPDT 242225
RWRPDT
PENDLETON REGIONAL WEATHER ROUNDUP
NATIONAL WEATHER SERVICE PENDLETON OREGON
300 PM PDT THU APR 24 2014

NOTE: FAIR INDICATES FEW OR NO CLOUDS BELOW 12,000 FEET WITH NO
SIGNIFICANT WEATHER AND/OR OBSTRUCTIONS TO VISIBILITY.

# INDICATES UNOFFICIAL STATION AND DATA

WAZ520-242310-
EAST SLOPES OF WASHINGTON CASCADES

CITY            SKY/WX      TMP DP  RH  WIND    PRES   REMARKS
#BUMPING DAM    N/A         43  N/A N/A S5      N/A
#CLE ELUM HS    N/A         51  36  56  N5      29.73S
#CLE ELUM 2NW   N/A         51  34  52  SW3     N/A
#CLE ELUM LAKE  N/A         50  37  61  W5      29.79R
#CLIFFDEL 2NW   N/A         53  33  46  SW5     N/A
#GLENWOOD       N/A         54  41  61  S7      29.83F
#MANASTASH CYN  N/A         53  30  41  NE3     29.76R
#NELSON 3SW     N/A         46  43  89  CALM    30.01S
#NILE           N/A         56  31  38  W7      29.11R
#RONALD 2NW     N/A         50  39  66  N3      29.66R
#TEANAWAY 4NE   N/A         54  45  71  SW3     N/A
#TROUT LAKE HS  N/A         53  40  61  W6      N/A
#TROUT LAKE 1NE N/A         51  40  66  W7      29.84F
$$

WAZ521-242310-
SIMCOE HIGHLANDS

CITY            SKY/WX      TMP DP  RH  WIND    PRES   REMARKS
#BICKLETON HS   N/A         50  27  41  W15G26  29.82S
#CENTERVILLE 4W N/A         51  40  66  W18     29.59R
#GOLDENDALE 1NE N/A         53  31  43  SW13    N/A
#GOLDENDALE 1S  N/A         52  39  61  W21G30  29.82R
#GOODNOE HILLS  N/A         56  39  53  NW36    29.76S
#LYLE 6NE       N/A         49  39  68  W8      29.84S
$$

WAZ026-242310-
KITTITAS VALLEY

CITY            SKY/WX      TMP DP  RH  WIND    PRES   REMARKS
ELLENSBURG AP   MOCLDY      61  39  44  NW21G26 29.76R
#ELLENSBURG CWU N/A         58  39  49  N15     29.71R
#ELLENSBURG 3NE N/A         55  40  57  W8      29.77R
#ELLENSBURG     N/A         58  40  51  NW7     N/A
#ELLENSBURG 1E  N/A         59  37  44  W1      N/A
#KITTITAS 3S    N/A         56  42  59  NW14    29.74R
#THORP 6N       N/A         51  39  63  W15     29.80S
$$

WAZ027-242310-
YAKIMA VALLEY

CITY            SKY/WX      TMP DP  RH  WIND    PRES   REMARKS
YAKIMA AIRPORT  MOCLDY      66  37  34  VRB7    29.75S
YAKIMA-VAGABOND SUNNY       62  31  31  W12G24  29.77R
#COWICHE 1N     N/A         58  35  42  W9      29.92S
#DONALD 2NE     N/A         66  32  28  SE6     30.09R
#GRANDVIEW      N/A         63  31  30  W6      29.79F
#MABTON         N/A         63  38  39  SW15G25 29.78S
#MOXEE 2E       N/A         62  21  20  W5      29.68S
#NACHES 2SW     N/A         60  39  46  W8      29.75S
#OUTLOOK DOT    N/A         62  35  36  W15     N/A
#SELAH 8E       N/A         60  34  37  W12     N/A
#TERRACE HTS    N/A         61  37  41  N5      29.72S
#TOPPENISH      N/A         63  40  43  SW10G24 29.69R
#WAPATO 4NE     N/A         66  32  28  SE6     30.09R
#WEST VALLEY    N/A         61  36  39  NW7     29.77S
#W YAKIMA       N/A         60  36  41  W5      29.75R
#WHITE SWAN 5E  N/A         63  39  41  SW21G32 29.76F
#WILEY CITY 3W  N/A         62  33  34  W9      29.75S
$$

WAZ028-242310-
LOWER COLUMBIA BASIN...WASHINGTON

CITY            SKY/WX      TMP DP  RH  WIND    PRES   REMARKS
HANFORD         MOSUNNY     67  31  26  SW22G33 29.75S
PASCO           PTCLDY      67  39  36  SW25G30 29.79F
PROSSER AWOS    N/A         64  36  35  SW18    29.81R
RICHLAND AWOS   PTCLDY      66  34  30  SW21G32 29.78S
#BASIN CITY 5SW N/A         66  39  37  SW7     29.76S
#BENTON CITY    N/A         63  35  35  W17G29  29.68R
#CONNELL 5N     N/A         62  40  44  SW10G28 29.77S
#CONNELL 5NW    N/A         63  40  43  W16G28  29.72F
#ELTOPIA        N/A         65  41  41  W15     29.75S
#ELTOPIA 6NW    N/A         62  40  44  SW15G28 28.75R
#KENNEWICK 3S   N/A         64  42  45  W7      29.80S
#PASCO-BROADMOORN/A         69  39  33  S15     29.66S
#PATERSON       N/A         63  40  43  W13     29.78F
#PROSSER        N/A         64  31  29  W15     29.78S
#SAGEMOOR 2W    N/A         64  40  41  SW21G28 29.63R
#TOUCHET 2S     N/A         62  47  58  W1      29.78S
#WEST PASCO     N/A         67  43  42  SW7     29.76R
$$

WAZ029-242310-
FOOTHILLS OF THE BLUES...WASHINGTON

CITY            SKY/WX      TMP DP  RH  WIND    PRES   REMARKS
WALLA WALLA AP  MOCLDY      60  46  60  SW14    29.82S
#COLLEGE PLACE  N/A         66  43  43  SW7     29.83R
#LOWDEN 2SE     N/A         63  46  54  W7      29.78S
#PLEASANT VIEW 1N/A         60  42  51  SW15G26 29.83F
#PRESCOTT       N/A         61  44  53  SW12G26 29.80S
#SUDBURY        N/A         63  N/A N/A W9      N/A
#WHITMAN COLLEGEN/A         61  46  58  SW7     29.85F
#WAITSBURG 8N   N/A         58  30  34  S24     29.65F
#WALLA WALLA 5E N/A         58  46  64  SE6     N/A
#WHITMAN MISSIONN/A         62  45  54  W8      29.81S
$$

WAZ030-242310-
BLUE MOUNTAINS...WASHINGTON

CITY            SKY/WX      TMP DP  RH  WIND    PRES   REMARKS
$$

ORZ009-041-WAZ024-242310-
COLUMBIA RIVER GORGE

CITY            SKY/WX      TMP DP  RH  WIND    PRES   REMARKS
HOOD RIVER AP   CLOUDY      54  41  61  SW3     29.87S
THE DALLES AP   PTCLDY      60  40  47  NW25G32 29.85F
#ARLINGTON AIRPON/A         60  35  39  SW24    25.34F
#ARLINGTON HS   N/A         63  35  35  CALM    29.73R
#CELILO DOT     N/A         58  33  39  N10     N/A
#MOSIER 1S      N/A         53  36  52  W8      29.91S
#MURDOCK        N/A         57  43  59  NW21G28 29.88F
#RUFUS DOT      N/A         59  31  34  NW35    N/A

$$

ORZ510-242310-
NORTH CENTRAL OREGON

CITY            SKY/WX      TMP DP  RH  WIND    PRES   REMARKS
#CHENOWITH 1W   N/A         47  38  71  N20     N/A    WCI 40
#COW CYN RST AREN/A         54  -56  0  W12     N/A
#GRASS VALLEY   N/A         54  35  48  SW2     N/A
#GRASS VALLEY 1SN/A         54  40  59  W14     29.85R
#KENT DOT       N/A         55  29  37  W25     N/A
#MAUPIN SCHOOL  N/A         60  40  47  W12G24  29.87S
#MORO SCHOOL    N/A         53  45  74  W15     29.85S
#SHANIKO 5WSW   N/A         51  26  37  W12     N/A
#SHANIKO 4NW    N/A         49  33  54  W10     29.84R
#TYGH VALLEY 2NEN/A         59  41  51  W15     29.83S
#WASCO DOT      N/A         57  34  42  W15     N/A
#WASCO 5NE      N/A         55  40  57  NW14    29.84R
$$

ORZ511-242310-
CENTRAL OREGON

CITY            SKY/WX      TMP DP  RH  WIND    PRES   REMARKS
BEND AIRPORT    MOSUNNY     55  28  35  W21G25  29.86F
MADRAS AIRPORT  MOCLDY      57  34  42  SW15G28 29.88R
REDMOND AIRPORT PTCLDY      57  23  27  SW20G32 29.84F
#BEND 6E        N/A         53  30  41  CALM    29.78F
#BEND 1SW       N/A         52  32  46  W3      N/A
#BEND-AWBREY    N/A         55  36  49  NE14    29.87S
#BEND-KIM LN    N/A         58  36  44  W7      29.84S
#CROOKED RVR RANN/A         56  38  51  W17G26  29.84S
#CULVER         N/A         54  34  47  W17G29  29.83R
#LAKE BILLY CHINN/A         56  17  21  SW3     29.92S
#POWELL BUTTE   N/A         57  34  42  SW9     29.51S
#PRINEVILLE AIR N/A         58  40  51  SW20G31 29.82F
#PRINEVILLE 3N  N/A         55  33  43  S1      29.78F
#WARM SPRINGS   N/A         61  38  42  S7      29.83S


ORZ509-242310-
EAST SLOPES OF OREGON CASCADES

CITY            SKY/WX      TMP DP  RH  WIND    PRES   REMARKS
#BLUE BOX PASS  N/A         37  -11 12  NW3     N/A
#CAMP SHERMAN   N/A         53  41  64  N2      29.85S
#LA PINE DOT    N/A         51  30  44  SW14    N/A
#LA PINE 4NW    N/A         49  34  56  S6      29.91F
#LAVA BUTTE DOT N/A         49  36  61  SW5     N/A
#SISTERS AIRPOR N/A         48  41  77  N12     29.90R WCI 43
#SISTERS ODOT   N/A         46  N/A N/A CALM    N/A
#SISTERS 3N     N/A         51  36  56  SW3     29.92S
#SUNRIVER       N/A         49  36  61  SW9     29.77F
#SUNRIVER AP    N/A         47  36  65  W7      29.85F
#TUMALO 3W      N/A         52  26  36  W10     29.75S
#WANOGA BUTTE D N/A         35  29  78  W13G25  N/A    WCI 26

$$

ORZ044-242310-
LOWER COLUMBIA BASIN...OREGON

CITY            SKY/WX      TMP DP  RH  WIND    PRES   REMARKS
HERMISTON       MOCLDY      66  41  40  W21G25  29.80S
#BOARDMAN SCHOOLN/A         62  40  44  NW5     29.81R
#BOARDMAN 3W    N/A         68  43  40  W9      29.53R
#BOARDMAN 8SW   N/A         62  43  50  W17     29.81R
#IONE SCHOOL    N/A         61  41  48  W9      29.81R
#IRRIGON 4NW    N/A         67  40  37  SW16    N/A
#UMATILLA SCHOOLN/A         65  48  54  W17     29.85S
#UMATILLA       N/A         64  40  41  W8      29.78S
$$

ORZ507-242310-
NORTHERN FOOTHILLS OF THE BLUES

CITY            SKY/WX      TMP DP  RH  WIND    PRES   REMARKS
PENDLETON AIRPT MOCLDY      57  40  53  SW12    29.82R
#ADAMS 3WNW     N/A         51  48  89  S6      29.83R
#ATHENA         N/A         51  43  74  CALM    29.86R
#HELIX SCHOOL   N/A         57  42  57  S12     29.82R
#HELIX 3N       N/A         56  41  57  W18G25  29.80R
#M-F FERNDALE   N/A         60  45  58  CALM    29.82R
#M-F GROVE ELEM N/A         58  45  62  S1      29.82S
#M-FREEWATER 5SEN/A         56  46  69  S7      29.85R
#PDT AQUATIC CTRN/A         59  41  51  S7      29.84R
#PDT SUNRIDGE   N/A         55  44  66  SW7     29.83R
#PENDLETON 7NW  N/A         60  44  55  SW7     29.77R
#PILOT ROCK     N/A         58  40  51  S8      29.86S
#TUTUILLA       N/A         55  45  69  S9      29.77R
#UMAPINE 2E     N/A         60  45  58  W6      29.75R
#WESTON SCHOOL  N/A         51  41  68  W10     29.91R

$$

ORZ508-242310-
SOUTHERN FOOTHILLS OF THE BLUES

CITY            SKY/WX      TMP DP  RH  WIND    PRES   REMARKS
LEXINGTON       PTCLDY      63  39  41  W20G28  29.84R
#AJAX           N/A         55  36  49  N10     29.85S
#CONDON SCHOOL  N/A         54  38  55  W15G25  29.80S
#CONDON 5W      N/A         51  34  52  W21G28  29.80S
#FOSSIL SCHOOL  N/A         56  31  38  W15G25  29.83S
#HEPPNER 4NE    N/A         53  39  59  W13     29.82S
#LEXINGTON 2SE  N/A         61  41  48  W14     29.80S
#MIKKALO        N/A         58  39  49  NW18G30 29.83R
#OLEX 4N        N/A         59  44  57  W18G28  29.82R
#RUGGS 5NE      N/A         56  37  49  W15G25  30.07S
#RUGGS 2SW      N/A         56  36  47  W18     29.86F

$$

ORZ502-503-242310-
BLUE MOUNTAINS

CITY            SKY/WX      TMP DP  RH  WIND    PRES   REMARKS
MEACHAM         LGT RAIN    44  40  86  VRB5    29.88R
#BATTLE MTN DOT N/A         47  33  58  SE7     N/A
#HARDMAN 10S    N/A         47  38  71  S8      29.91S
#HEPPNER 15SE   N/A         46  36  68  S2      29.75F
#LADD CYN SMT   N/A         45  36  70  NW3     N/A
#LADD CREEK ODOTN/A         46  43  89  NE2     N/A
#LONG CREEK HS  N/A         44  43  96  N5      29.84R
#N POWDER DOT   N/A         49  40  71  E2      N/A
#TOLLGATE 9W    N/A         45  43  93  SE6     N/A
#TROY SCHOOL    N/A         54  46  74  S1      29.71F
#UKIAH          N/A         49  42  77  SE3     29.89F
#WESTON 4E      N/A         43  41  93  SW12    29.82R WCI 37
$$

ORZ505-242310-
JOHN DAY BASIN

CITY            SKY/WX      TMP DP  RH  WIND    PRES   REMARKS
JOHN DAY        PTCLDY      52  37  56  CALM    29.87F
#JOHN DAY KJDY  N/A         56  50  80  N1      29.83S
#DAYVILLE SCHOOLN/A         56  41  57  N3      29.83F
#MONUMENT HS    N/A         55  41  59  S7      29.83F
#MT. VERNON 5SE N/A         48  39  71  W3      29.82F
$$

ORZ506-242310-
OCHOCO AND JOHN DAY HIGHLANDS

CITY            SKY/WX      TMP DP  RH  WIND    PRES   REMARKS
#ANTONE         N/A         32  N/A N/A CALM    N/A
#BUCK CREEK DOT N/A         51  43  74  SW9     N/A
#HORSE RIDGE DO N/A         50  33  52  W16     N/A
#KEYES SMT DOT  N/A         51  32  48  W8      N/A
#PAULINA SCHOOL N/A         56  33  42  NW7     29.85S
#PINE MTN OBS   N/A         40  33  76  S1      N/A
#PRAIRIE CITY   N/A         49  40  71  E2      29.89F
#SENECA 9NW     N/A         48  40  74  CALM    29.83F
$$

ORZ049-242310-
GRANDE RONDE VALLEY

CITY            SKY/WX      TMP DP  RH  WIND    PRES   REMARKS
LA GRANDE       CLOUDY      48  36  63  SW9     29.90R
#COVE           N/A         43  42  96  E5      29.82S
#COVE SCHOOL    N/A         43  40  89  E6      29.88S
#COVE 6NW       N/A         45  41  86  CALM    29.94R
#ELGIN 3N       N/A         49  39  68  S9      29.59F
#ELGIN 1E       N/A         48  41  77  CALM    N/A
#IMBLER SCHOOL  N/A         46  40  79  CALM    29.86R
#ISLAND CITY 4N N/A         48  44  86  S10     29.83R
#LADD CYN DOT   N/A         48  41  77  NE1     N/A
#LA GRANDE ELEM N/A         47  40  76  SW9     29.88R
#UNION 1S       N/A         46  41  83  E7      29.80R
$$

ORZ050-242310-
WALLOWA COUNTY

CITY            SKY/WX      TMP DP  RH  WIND    PRES   REMARKS
JOSEPH AIRPORT  CLOUDY      43  37  79  N7      29.89R
#ENTERPRISE HS  N/A         43  39  86  N6      29.88R
#JOSEPH 3N      N/A         42  38  86  NW7     29.91R
#LOSTINE        N/A         41  39  93  CALM    29.71R
#MT HOWARD 8000 N/A         31  29  92  SE2     29.85R
#PROMISE 1S     N/A         43  40  89  N3      29.97F
#SHEEP RDG 7000 N/A         29  28  96  CALM    29.92R
#WALLOWA SCHOOL N/A         43  40  89  CALM    30.84S



$$



USA.gov is the U.S. government's official web portal to all federal, state and local government web resources and services.